Location: Obersdorf
(47.4079°N, 10.2781°E)
Time: 18:52:00
(UTC+02:00)

Nauka - Pass Details

Date: 30 September 2021
Orbit: 417 x 423 km, 51.6° (Epoch: 24 October)

Event Time Altitude Azimuth Distance (km) Brightness Sun altitude
Rises 19:25:50 0° 289° (WNW) 2,365 ? -5.2°
Reaches altitude 10° 19:28:00 10° 296° (WNW) 1,501 ? -5.5°
Maximum altitude 19:31:14 43° 10° (N) 604 ? -6.1°
Drops below altitude 10° 19:34:29 10° 83° (E) 1,502 ? -6.6°
Enters shadow 19:34:45 - 85° (E) 1,607 ? -6.7°
